When you browse on this site, cookies collect data to enhance your experience and personalize the content and advertising you see.
Visit our Privacy Policy to learn more. By continuing to use the site, you agree to this use of cookies and data.
  • In Romania
  • List of Countries
  • For 7 days
  • Water Temperature
  • Weather Map
  • Weather Widgets
  • user-avatar
    Login

    Hourly Weather Tinheyri

    Today, 18 February, Tuesday

    Time Temperature Precipitation Wind Pressure Humidity
    00:00 -8°C° 0 mm 6 mps 717 mmHg 91%
    01:00 -7°C° 0 mm 5 mps 717 mmHg 92%
    02:00 -7°C° 0 mm 5 mps 717 mmHg 92%
    03:00 -6°C° 0 mm 5 mps 717 mmHg 92%
    04:00 -6°C° 0 mm 6 mps 717 mmHg 92%
    05:00 -6°C° 0.1 mm 5 mps 718 mmHg 92%
    06:00 -6°C° 0.1 mm 5 mps 718 mmHg 92%
    07:00 -6°C° 0.1 mm 5 mps 718 mmHg 92%
    08:00 -6°C° 0 mm 5 mps 718 mmHg 91%
    09:00 -6°C° 0 mm 5 mps 719 mmHg 91%
    10:00 -6°C° 0 mm 5 mps 719 mmHg 90%
    11:00 -6°C° 0 mm 5 mps 719 mmHg 90%
    12:00 -5°C° 0 mm 5 mps 719 mmHg 90%
    13:00 -5°C° 0 mm 5 mps 719 mmHg 89%
    14:00 -4°C° 0 mm 4 mps 719 mmHg 90%
    15:00 -5°C° 0 mm 4 mps 718 mmHg 90%
    16:00 -5°C° 0 mm 3 mps 718 mmHg 91%
    17:00 -5°C° 0 mm 3 mps 718 mmHg 91%
    18:00 -5°C° 0 mm 3 mps 718 mmHg 91%
    19:00 -4°C° 0 mm 2 mps 718 mmHg 92%
    20:00 -4°C° 0.2 mm 2 mps 718 mmHg 92%
    21:00 -5°C° 0.2 mm 3 mps 718 mmHg 93%
    22:00 -5°C° 0.2 mm 3 mps 717 mmHg 93%
    23:00 -5°C° 0.4 mm 3 mps 717 mmHg 92%

    Tomorrow, 19 February, Wednesday

    Time Temperature Precipitation Wind Pressure Humidity
    00:00 -5°C° 0.4 mm 4 mps 717 mmHg 90%
    01:00 -5°C° 0.4 mm 4 mps 717 mmHg 89%
    02:00 -7°C° 0 mm 4 mps 717 mmHg 86%
    03:00 -7°C° 0 mm 3 mps 716 mmHg 84%
    04:00 -7°C° 0 mm 3 mps 716 mmHg 82%
    05:00 -8°C° 0 mm 3 mps 716 mmHg 83%
    06:00 -8°C° 0 mm 3 mps 715 mmHg 84%
    07:00 -8°C° 0 mm 3 mps 715 mmHg 85%
    08:00 -8°C° 0 mm 3 mps 714 mmHg 83%
    09:00 -7°C° 0 mm 3 mps 714 mmHg 81%
    10:00 -7°C° 0 mm 3 mps 713 mmHg 79%
    11:00 -7°C° 0 mm 3 mps 712 mmHg 79%
    12:00 -6°C° 0 mm 3 mps 712 mmHg 78%
    13:00 -7°C° 0 mm 4 mps 711 mmHg 78%
    14:00 -7°C° 0.1 mm 5 mps 710 mmHg 83%
    15:00 -7°C° 0.1 mm 7 mps 709 mmHg 89%
    16:00 -7°C° 0.1 mm 8 mps 708 mmHg 94%
    17:00 -6°C° 0.4 mm 8 mps 707 mmHg 94%
    18:00 -6°C° 0.4 mm 9 mps 706 mmHg 94%
    19:00 -5°C° 0.4 mm 9 mps 706 mmHg 93%
    20:00 -6°C° 0.1 mm 11 mps 705 mmHg 92%
    21:00 -6°C° 0.1 mm 13 mps 705 mmHg 91%
    22:00 -7°C° 0.1 mm 15 mps 704 mmHg 91%
    23:00 -7°C° 0.2 mm 15 mps 704 mmHg 91%

    Day after tomorrow, 20 February, Thursday

    Time Temperature Precipitation Wind Pressure Humidity
    00:00 -8°C° 0.2 mm 16 mps 704 mmHg 92%
    01:00 -8°C° 0.2 mm 17 mps 705 mmHg 93%
    02:00 -8°C° 0.5 mm 17 mps 705 mmHg 93%
    03:00 -9°C° 0.5 mm 17 mps 705 mmHg 93%
    04:00 -9°C° 0.5 mm 17 mps 705 mmHg 93%
    05:00 -9°C° 0.5 mm 17 mps 706 mmHg 93%
    06:00 -11°C° 0.5 mm 16 mps 707 mmHg 93%
    07:00 -10°C° 0.5 mm 15 mps 707 mmHg 92%
    08:00 -10°C° 0.6 mm 15 mps 708 mmHg 92%
    09:00 -10°C° 0.6 mm 15 mps 708 mmHg 92%
    10:00 -10°C° 0.6 mm 14 mps 709 mmHg 92%
    11:00 -10°C° 0.4 mm 13 mps 710 mmHg 92%
    12:00 -10°C° 0.4 mm 13 mps 710 mmHg 92%
    13:00 -11°C° 0.4 mm 12 mps 711 mmHg 92%
    14:00 -10°C° 0.2 mm 10 mps 711 mmHg 92%
    15:00 -11°C° 0.2 mm 9 mps 711 mmHg 92%
    16:00 -11°C° 0.2 mm 8 mps 712 mmHg 92%
    17:00 -11°C° 0.2 mm 8 mps 711 mmHg 92%
    18:00 -11°C° 0.2 mm 8 mps 711 mmHg 92%
    19:00 -11°C° 0.2 mm 8 mps 711 mmHg 91%
    20:00 -11°C° 0.1 mm 9 mps 711 mmHg 91%
    21:00 -10°C° 0.1 mm 10 mps 710 mmHg 90%
    22:00 -10°C° 0.1 mm 10 mps 709 mmHg 90%
    23:00 -11°C° 0.1 mm 12 mps 708 mmHg 90%

    21 February, Friday

    Time Temperature Precipitation Wind Pressure Humidity
    00:00 -11°C° 0.1 mm 13 mps 707 mmHg 90%
    01:00 -11°C° 0.1 mm 14 mps 706 mmHg 90%
    02:00 -12°C° 0.1 mm 15 mps 705 mmHg 90%
    03:00 -11°C° 0.1 mm 16 mps 703 mmHg 90%
    04:00 -11°C° 0.1 mm 17 mps 702 mmHg 90%
    11:00 -8°C° 0.7 mm 17 mps 697 mmHg 91%
    12:00 -8°C° 0.7 mm 17 mps 697 mmHg 92%
    13:00 -8°C° 0.7 mm 16 mps 697 mmHg 94%
    14:00 -8°C° 1 mm 16 mps 697 mmHg 94%
    15:00 -8°C° 1 mm 15 mps 697 mmHg 94%
    16:00 -8°C° 1 mm 15 mps 697 mmHg 95%
    17:00 -8°C° 1.3 mm 15 mps 697 mmHg 94%
    18:00 -8°C° 1.3 mm 16 mps 698 mmHg 94%
    19:00 -9°C° 1.3 mm 16 mps 698 mmHg 94%
    20:00 -9°C° 0.6 mm 15 mps 699 mmHg 93%
    21:00 -9°C° 0.6 mm 15 mps 699 mmHg 93%
    22:00 -10°C° 0.6 mm 15 mps 700 mmHg 92%
    23:00 -10°C° 0.4 mm 14 mps 701 mmHg 92%

    22 February, Saturday

    Time Temperature Precipitation Wind Pressure Humidity
    00:00 -10°C° 0.4 mm 14 mps 701 mmHg 92%
    01:00 -10°C° 0.4 mm 13 mps 702 mmHg 91%
    02:00 -11°C° 0.2 mm 12 mps 703 mmHg 91%
    03:00 -11°C° 0.2 mm 11 mps 704 mmHg 92%
    04:00 -10°C° 0.2 mm 10 mps 705 mmHg 92%
    05:00 -10°C° 0.2 mm 10 mps 706 mmHg 92%
    06:00 -12°C° 0.2 mm 10 mps 707 mmHg 92%
    07:00 -11°C° 0.2 mm 9 mps 708 mmHg 93%
    08:00 -11°C° 0.2 mm 9 mps 709 mmHg 92%
    09:00 -11°C° 0.2 mm 8 mps 710 mmHg 92%
    10:00 -11°C° 0.2 mm 7 mps 711 mmHg 92%
    11:00 -10°C° 0.1 mm 6 mps 712 mmHg 91%
    12:00 -11°C° 0.1 mm 5 mps 713 mmHg 90%
    13:00 -11°C° 0.1 mm 5 mps 714 mmHg 90%
    14:00 -11°C° 0.1 mm 4 mps 715 mmHg 90%
    15:00 -12°C° 0.1 mm 3 mps 715 mmHg 90%
    16:00 -12°C° 0.1 mm 2 mps 716 mmHg 91%
    17:00 -12°C° 0 mm 2 mps 717 mmHg 91%
    18:00 -13°C° 0 mm 2 mps 718 mmHg 91%
    19:00 -12°C° 0 mm 1 mps 718 mmHg 92%
    20:00 -14°C° 0 mm 2 mps 719 mmHg 89%
    21:00 -14°C° 0 mm 2 mps 719 mmHg 87%
    22:00 -14°C° 0 mm 2 mps 720 mmHg 85%
    23:00 -15°C° 0 mm 3 mps 720 mmHg 87%

    23 February, Sunday

    Time Temperature Precipitation Wind Pressure Humidity
    00:00 -15°C° 0 mm 4 mps 720 mmHg 88%
    01:00 -15°C° 0 mm 4 mps 720 mmHg 90%
    02:00 -14°C° 0 mm 5 mps 719 mmHg 89%
    03:00 -14°C° 0 mm 6 mps 719 mmHg 89%
    04:00 -13°C° 0 mm 7 mps 719 mmHg 89%
    05:00 -12°C° 0.2 mm 7 mps 720 mmHg 90%
    06:00 -11°C° 0.2 mm 7 mps 720 mmHg 92%
    07:00 -10°C° 0.2 mm 8 mps 720 mmHg 93%
    08:00 -8°C° 1.6 mm 8 mps 720 mmHg 94%
    09:00 -7°C° 1.6 mm 8 mps 720 mmHg 96%
    10:00 -6°C° 1.6 mm 8 mps 721 mmHg 97%
    11:00 -6°C° 1.1 mm 8 mps 721 mmHg 96%
    12:00 -6°C° 1.1 mm 8 mps 721 mmHg 95%
    13:00 -5°C° 1.1 mm 8 mps 721 mmHg 94%
    14:00 -6°C° 0.3 mm 8 mps 721 mmHg 90%
    15:00 -8°C° 0.3 mm 9 mps 721 mmHg 86%
    16:00 -8°C° 0.3 mm 10 mps 721 mmHg 82%
    17:00 -8°C° 0.2 mm 10 mps 721 mmHg 81%
    18:00 -8°C° 0.2 mm 9 mps 721 mmHg 80%
    19:00 -8°C° 0.2 mm 9 mps 721 mmHg 79%
    20:00 -7°C° 0.5 mm 8 mps 721 mmHg 84%
    21:00 -7°C° 0.5 mm 7 mps 721 mmHg 88%
    22:00 -6°C° 0.5 mm 6 mps 721 mmHg 93%
    23:00 -6°C° 0.6 mm 6 mps 721 mmHg 94%
    Show more